Dewpoint
54 54 53 53 53 53 53 53 54 55 56 56 56 57 59 57 57 55 54 54 52 49 46 46 45 44 41 39 38 40 39 36 37 38 34 32 34 38 44 42 46 36 33 26 30 29 33 45 37 34 48 48 49 50
54 53 52 52 53 53 53 53 54 54 55 56 57 57 58 58 57 56 53 54 53 52 48 50 49 48 47 45 44 41 42 46 42 42 37 35 47 46 48 44 43 41 47 47 35 40 52 54 51 46 46 48 50 50
54 53 52 52 52 52 52 53 53 54 54 55 56 57 57 58 57 56 54 53 52 50 48 47 45 46 45 44 44 43 40 40 44 50 45 44 46 54 49 43 41 47 50 43 37 42 49 49 44 46 46 47 48 48
54 52 52 52 52 50 50 51 52 53 54 55 56 57 57 58 57 56 54 54 52 50 47 42 42 42 44 43 44 43 42 44 43 45 43 41 40 45 40 43 43 45 56 49 42 38 40 42 49 48 48 48 49 50
54 52 52 51 50 50 50 51 51 52 54 55 56 57 57 58 56 56 56 55 54 50 47 46 47 46 44 43 44 44 42 42 42 41 42 40 39 41 42 41 39 37 40 39 35 49 51 51 49 48 48 49 51 52
53 52 51 51 51 50 51 51 51 52 54 55 56 57 57 57 55 55 52 54 54 53 49 45 46 44 43 43 44 43 44 43 41 39 40 42 42 43 40 35 39 37 36 37 42 45 48 48 47 46 48 49 50 52
53 51 51 50 51 52 52 53 53 53 54 55 55 56 56 55 56 54 51 53 55 56 50 46 43 44 44 44 44 44 43 43 43 40 40 40 39 43 41 37 39 39 40 40 41 43 44 43 44 44 48 48 53 52
52 51 50 51 52 53 54 53 53 53 54 55 55 56 55 54 54 53 54 53 54 52 50 46 43 40 44 43 42 43 42 43 44 43 41 39 38 40 41 44 43 42 42 41 40 40 41 41 44 45 48 50 52 52
51 50 50 51 52 52 53 54 53 53 54 55 55 55 55 54 52 51 55 55 54 52 48 47 41 42 43 43 42 43 43 42 44 42 41 39 38 39 43 48 46 44 44 44 42 45 45 45 47 49 50 51 52 52
51 50 50 49 50 52 53 54 53 53 54 55 55 52 49 52 56 55 53 49 50 51 50 46 44 42 41 41 42 42 43 42 39 40 41 38 36 43 43 45 50 50 51 51 49 48 47 47 47 50 50 50 50 51
50 49 49 48 50 51 52 54 54 53 54 54 51 50 55 56 53 51 48 46 47 45 47 46 45 43 43 41 44 42 44 40 36 39 39 37 37 44 46 46 54 56 57 57 57 57 55 51 49 50 51 51 51 53
50 49 48 49 49 50 51 52 53 54 54 53 54 55 54 51 49 46 45 46 45 43 45 45 45 45 45 45 43 48 41 42 37 38 38 37 39 56 54 53 55 57 56 55 56 56 56 56 54 52 52 52 54 56
50 48 49 48 48 49 50 51 53 54 54 55 52 49 48 48 41 41 40 42 44 44 45 45 44 45 46 46 43 39 39 37 40 38 38 39 56 57 57 57 55 55 54 55 56 55 53 54 54 53 52 55 57 61
50 49 49 48 48 48 49 51 53 53 53 49 47 39 43 42 42 41 42 41 43 48 45 45 44 43 43 43 41 37 37 37 34 34 37 42 60 59 59 58 56 54 53 53 55 56 55 53 53 53 53 57 61 63
49 49 49 48 49 48 48 50 53 54 51 47 47 39 43 42 42 43 42 43 50 50 53 54 52 50 41 41 37 37 34 35 37 37 39 57 62 62 60 59 57 55 55 55 55 55 57 54 53 54 55 57 61 64
49 47 46 49 48 48 48 50 52 52 50 48 47 44 43 42 41 41 46 48 47 50 47 50 50 49 46 39 35 35 34 35 37 39 54 60 62 62 61 59 58 57 56 55 55 56 57 58 57 55 56 58 61 63
47 44 49 48 48 48 48 50 49 47 45 45 43 44 42 44 43 47 50 49 49 50 48 50 46 45 49 44 39 36 35 38 49 50 53 61 62 62 61 59 58 59 58 58 57 58 58 58 58 59 57 59 59 63
42 47 48 48 48 49 49 48 46 45 43 44 43 41 42 42 46 52 51 52 51 49 49 48 48 47 46 45 42 44 46 48 50 52 55 60 61 61 60 60 61 61 59 59 59 58 58 58 59 58 61 60 60 62
44 48 48 46 47 47 45 45 46 42 43 44 43 43 42 42 47 52 54 51 51 52 49 48 46 45 47 49 52 54 52 49 50 53 57 60 61 61 60 59 58 59 59 60 59 55 55 59 59 58 57 59 59 59
45 47 47 46 46 46 43 44 49 44 41 42 42 42 44 42 46 49 50 52 52 49 47 44 46 44 44 54 55 54 55 57 51 52 53 53 54 57 56 54 53 57 55 58 58 54 57 58 57 59 57 58 59 58
44 44 46 45 45 46 43 43 43 44 45 42 41 43 43 43 44 46 47 50 50 47 44 43 42 44 49 52 57 57 55 55 51 51 50 49 50 49 50 50 50 48 48 51 52 57 54 55 57 60 61 59 60 61
45 47 45 43 42 42 43 44 43 46 44 43 41 41 42 42 41 41 42 45 45 43 43 43 43 43 50 52 55 56 55 56 58 53 51 49 48 46 45 44 45 44 45 48 51 53 57 57 58 61 61 62 59 63
46 44 43 41 39 39 38 43 42 42 40 40 40 39 38 38 38 39 39 40 41 42 43 43 48 48 50 50 53 56 57 56 50 50 47 45 44 46 44 44 44 45 45 45 47 48 57 53 57 60 61 62 63 63
43 41 38 36 37 36 37 39 40 39 40 37 37 36 35 35 38 37 36 36 37 38 41 50 43 42 45 51 52 49 53 52 49 50 47 45 44 43 42 41 42 44 45 44 43 45 50 62 55 61 60 60 62 62
37 34 37 36 36 33 31 32 34 33 32 34 34 33 32 33 32 33 34 33 33 34 39 41 40 40 40 43 46 47 47 48 47 47 46 45 44 42 41 40 39 42 43 41 41 45 45 55 59 61 60 59 61 60
34 33 35 32 32 31 30 29 30 31 30 30 30 31 32 30 30 30 29 30 31 32 35 37 37 38 40 43 43 43 44 46 47 44 45 44 42 40 40 39 39 41 41 40 41 42 44 49 55 59 59 59 53 59
31 30 32 32 32 32 30 30 31 30 30 29 29 30 29 28 27 29 33 35 33 35 37 39 37 36 39 43 43 44 45 45 46 43 44 43 41 40 40 40 41 41 43 44 45 45 44 46 55 58 58 61 61 58
31 32 30 31 30 30 30 30 28 28 28 29 29 28 26 25 25 31 34 39 39 42 42 41 40 38 39 41 41 41 41 42 43 43 41 40 42 41 42 41 41 46 48 49 48 47 49 53 57 58 58 58 60 60
32 32 32 34 32 31 30 29 28 27 29 28 28 28 28 28 30 32 37 40 40 39 38 36 36 37 37 38 38 38 38 39 40 42 41 39 37 37 39 43 45 47 47 48 46 47 55 58 57 59 59 58 58 58
31 32 31 31 33 32 30 29 28 27 26 26 28 29 29 29 30 32 32 37 37 37 37 36 35 35 34 34 34 35 36 36 36 37 39 38 37 36 41 42 44 43 45 46 46 48 48 55 54 57 57 57 57 56
30 29 30 30 29 30 30 31 31 31 30 29 28 28 27 28 28 29 30 32 34 35 33 32 32 32 32 31 32 33 34 35 37 38 41 41 40 44 45 44 43 44 48 48 46 48 51 53 54 55 57 56 56 55
32 32 32 34 34 36 40 39 38 37 34 34 32 32 32 33 34 34 32 29 29 30 33 32 30 29 29 28 29 30 34 31 34 36 44 43 42 43 44 44 41 42 47 52 47 49 51 52 52 54 55 56 56 56
38 38 38 38 37 35 36 39 39 39 40 39 38 39 39 41 39 39 40 39 36 34 32 31 31 31 33 34 34 34 35 34 36 38 37 37 38 41 43 45 45 44 47 48 51 48 53 49 52 52 54 56 57 55
Lifted_Index
12 12 12 12 11 11 11 11 10 10 9 8 7 7 6 6 5 5 4 3 2 1 1 1 1 1 1 0 -0 -1 -1 -1 -2 -2 -2 -2 -2 -1 0 0 -1 -1 -1 -0 -0 -1 -1 -1 -2 -2 -3 -4 -4 -4
12 12 12 12 11 11 11 11 10 10 9 8 7 7 6 6 6 5 4 4 3 2 1 1 1 1 1 1 0 -0 -0 -1 -2 -2 -2 -2 -2 -1 -0 -0 -1 -1 -1 -1 -1 -1 -1 -1 -2 -2 -3 -3 -3 -3
12 12 12 12 12 11 11 11 10 10 9 8 8 7 6 6 6 6 5 4 3 3 2 1 1 2 2 2 1 1 0 -1 -1 -2 -2 -2 -2 -2 -1 -1 -2 -2 -2 -1 -1 -1 -1 -1 -2 -3 -3 -2 -2 -2
12 12 12 12 12 12 11 11 10 10 9 8 8 7 6 6 6 5 5 4 4 3 2 1 2 2 2 2 2 1 1 0 -1 -1 -1 -2 -3 -2 -2 -2 -2 -2 -2 -2 -2 -1 -2 -2 -2 -2 -2 -2 -2 -2
12 12 12 12 12 12 12 11 11 10 9 8 8 7 6 6 6 5 5 5 4 4 2 2 2 2 2 2 2 2 1 1 0 -0 -1 -1 -2 -2 -2 -1 -1 -1 -1 -2 -2 -2 -2 -2 -2 -1 -1 -2 -2 -2
12 12 12 12 12 12 12 11 11 10 9 8 7 7 6 6 5 5 5 5 5 4 3 2 1 1 1 2 2 1 1 1 1 1 0 -1 -1 -1 -1 -0 -0 -0 -0 -1 -1 -1 -1 -1 -1 -1 -1 -2 -2 -2
11 11 12 12 12 12 12 11 11 10 9 8 7 7 6 6 6 5 5 5 5 4 3 2 1 1 1 1 1 1 1 1 1 1 0 0 -0 -0 -0 0 0 0 0 0 -0 -0 -0 -0 -1 -1 -2 -2 -3 -3
11 11 11 12 12 12 11 11 10 9 9 8 7 7 6 6 6 5 5 5 5 4 3 2 1 1 1 0 0 1 1 0 0 0 0 0 0 0 0 -0 -0 -0 0 0 0 0 -0 -1 -1 -2 -2 -3 -3 -3
10 11 11 12 12 12 11 10 10 9 8 7 7 7 6 6 5 5 5 5 5 4 3 2 1 0 0 -0 -0 0 0 0 0 0 0 1 1 1 0 -0 -1 -0 -0 -0 -0 -1 -1 -1 -2 -2 -3 -3 -4 -4
10 10 11 12 12 12 11 10 9 9 8 7 7 6 6 6 5 5 5 5 4 4 3 2 1 0 0 -0 -0 -0 -0 -0 -0 0 0 1 1 0 0 -0 -1 -2 -2 -2 -2 -2 -2 -2 -3 -3 -4 -4 -4 -4
10 10 11 12 12 12 10 9 9 9 8 7 6 6 6 6 5 4 4 4 4 4 3 2 1 0 -0 -0 -1 -1 -1 -1 -0 -0 -0 0 -0 -1 -1 -1 -2 -3 -3 -3 -4 -4 -4 -3 -4 -4 -4 -4 -4 -4
10 10 11 12 12 12 10 9 9 8 8 7 6 6 6 6 5 4 3 3 3 3 2 1 -0 -0 -0 -0 -0 -1 -1 -1 -1 -1 -1 -1 -2 -3 -3 -3 -3 -3 -4 -4 -4 -5 -5 -5 -5 -5 -5 -5 -5 -6
10 11 11 12 12 12 11 9 8 8 7 7 6 6 6 5 4 3 3 3 2 1 1 0 -0 -0 -0 -0 -0 -0 -0 -0 -0 -0 -1 -2 -4 -4 -4 -4 -4 -3 -3 -4 -4 -5 -5 -5 -5 -5 -5 -6 -6 -7
10 11 11 12 12 12 11 9 8 8 7 7 6 6 5 5 4 3 2 2 1 1 0 0 0 -0 0 0 0 0 0 0 0 -0 -1 -4 -5 -5 -5 -4 -4 -4 -3 -4 -4 -5 -5 -5 -5 -5 -5 -6 -7 -8
11 11 11 12 12 11 10 8 8 8 7 7 6 6 5 4 3 2 1 1 1 1 0 0 0 0 0 0 1 1 0 0 -0 -1 -3 -5 -6 -6 -5 -5 -4 -4 -4 -4 -4 -4 -5 -5 -5 -5 -5 -6 -8 -8
11 11 11 12 11 11 9 8 8 8 7 7 6 6 4 3 2 1 0 0 1 1 1 1 0 0 0 0 1 1 0 -0 -1 -2 -4 -6 -6 -6 -5 -4 -4 -4 -4 -4 -4 -4 -5 -5 -5 -5 -5 -6 -7 -8
11 11 11 12 11 10 9 8 8 8 7 7 6 5 3 2 1 0 0 1 2 2 2 1 1 1 0 -0 0 0 -0 -1 -2 -3 -4 -5 -5 -5 -4 -4 -4 -4 -4 -4 -4 -4 -4 -5 -5 -5 -6 -6 -7 -7
10 11 11 11 11 10 9 8 8 8 7 7 6 4 3 2 1 0 0 1 2 3 2 2 2 1 0 -0 -1 -1 -1 -2 -2 -3 -4 -5 -5 -4 -4 -4 -4 -4 -4 -4 -4 -4 -4 -5 -5 -5 -6 -6 -7 -7
10 11 11 11 10 10 9 9 9 8 8 7 5 4 3 2 1 0 0 1 2 3 3 3 2 2 1 -0 -1 -0 -1 -1 -2 -3 -3 -3 -3 -3 -3 -3 -3 -3 -4 -4 -4 -3 -4 -4 -5 -5 -5 -6 -6 -7
11 11 11 11 10 10 9 9 9 8 7 6 5 4 3 2 1 1 1 1 2 3 4 4 3 2 1 1 1 1 0 -1 -1 -2 -2 -2 -2 -2 -2 -2 -2 -2 -3 -3 -3 -3 -3 -4 -4 -4 -4 -5 -6 -6
11 11 11 11 10 10 9 9 9 8 7 6 5 4 3 2 2 2 1 2 2 3 4 4 4 3 2 2 2 2 1 -0 -1 -1 -1 -0 -0 -0 -0 -0 -0 -0 -1 -1 -2 -3 -3 -3 -3 -3 -4 -4 -4 -5
11 11 11 10 10 10 9 9 8 7 7 6 5 4 4 3 3 2 2 2 3 3 3 3 3 3 3 3 3 2 2 1 -0 -0 0 0 0 1 1 1 1 1 1 0 -1 -1 -2 -2 -3 -3 -3 -3 -3 -4
10 10 10 10 9 9 8 7 7 7 6 6 5 5 5 4 4 3 3 3 3 3 3 3 3 3 3 3 3 2 2 1 1 1 1 1 1 1 2 2 2 2 2 2 1 0 -1 -2 -2 -2 -2 -2 -2 -3
10 9 9 9 8 7 7 6 6 6 6 5 5 5 5 5 4 4 4 4 3 3 3 2 3 3 3 3 3 2 2 1 2 2 1 1 1 2 2 2 2 2 2 3 3 2 0 -1 -2 -2 -2 -1 -1 -1
9 9 8 7 7 6 6 5 5 5 5 5 4 4 5 5 5 4 4 4 4 4 3 3 3 3 3 3 2 2 2 2 2 2 1 1 2 2 3 3 3 3 3 3 3 3 2 0 -1 -2 -1 -1 -1 -1
7 7 7 6 5 5 5 4 4 4 4 4 4 4 4 4 4 4 4 4 4 4 4 4 4 4 3 3 2 2 2 2 2 2 2 2 2 3 3 3 3 3 3 3 3 3 3 1 -1 -1 -1 -1 -0 -0
6 6 5 5 4 4 4 3 3 3 3 4 3 4 4 4 4 4 4 4 4 4 4 4 4 4 3 3 3 2 2 2 2 2 2 3 3 3 3 3 3 3 3 3 3 3 2 1 -1 -2 -1 -0 0 0
6 6 5 5 4 4 4 4 4 4 4 4 3 3 3 3 3 3 3 3 4 4 4 4 4 4 4 3 3 3 3 3 3 3 3 3 3 3 3 3 3 3 2 2 2 2 1 -0 -1 -2 -2 -1 0 0
7 6 6 5 5 4 4 4 4 4 4 4 4 3 3 3 3 3 3 3 3 4 4 5 5 5 5 4 4 4 4 4 3 3 3 3 3 3 3 3 3 2 2 2 2 2 1 -0 -2 -2 -2 -1 -0 -0
7 7 7 6 6 5 5 5 5 5 4 4 4 4 4 4 4 4 4 3 3 3 4 5 5 6 5 5 5 5 5 4 4 3 3 3 3 3 3 3 2 2 2 2 2 2 1 -0 -1 -2 -2 -2 -1 -1
8 7 6 6 6 6 6 6 5 5 5 5 5 5 4 4 4 4 4 4 3 4 4 5 5 6 6 6 6 6 5 5 5 4 3 3 3 3 2 2 3 2 2 1 2 1 1 -0 -1 -2 -2 -2 -1 -1
6 6 6 5 5 6 6 6 5 5 5 5 5 5 4 4 4 4 4 4 4 4 4 4 5 6 6 7 7 6 6 6 6 5 4 4 3 3 2 3 3 2 1 1 1 1 0 -0 -1 -1 -2 -2 -1 -1
5 5 5 5 5 6 6 5 5 5 4 4 4 4 4 4 3 3 3 4 4 4 4 4 4 5 6 6 6 7 7 7 6 6 5 4 3 3 3 3 2 2 1 1 0 0 -0 -0 -0 -1 -1 -1 -1 -1